Seattle, WA
on Tuesday, January 1, 2013

Tuesday
Previous Day Next Day
Daily Summary
 ActualAverageRecord
Temperature
Mean Temperature °F 41°F  
Max Temperature 41°F 46°F 58°F (2006)
Min Temperature 27°F 36°F 10°F (1952)
Degree Days
Heating Degree Days 31 24  
Month to date heating degree days 31 24  
Since 1 July heating degree days 1782 1962  
Cooling Degree Days 0 0  
Month to date cooling degree days 0 0  
Year to date cooling degree days 0 0  
Moisture
Dew Point 27°F   
Average Humidity 73    
Maximum Humidity 85    
Minimum Humidity 60    
Precipitation
Precipitation 0.00 in 0.18 in 1.37 in (1964)
Month to date precipitation 0.00 0.18  
Year to date precipitation 0.00 0.18  
Snow
Snow 0.00 in in 6.80 in (1950)
Month to date snowfall 0.0  
Since 1 July snowfall 0.6  
Snow Depth 0.00 in   
Wind
Wind Speed 6 mph   
Max Wind Speed 14 mph   
Max Gust Speed 17 mph   
Visibility 10 miles   
Events     

Key: T is trace of precipitation, MM is missing value
Source: NWS Daily Summary
Time(PST)TemperatureDew PointHumidity Pressure Visibility Wind DirectionWind SpeedGust SpeedPrecipitationEvents Conditions
12:25 AM 33.8°F 24.8°F 70% 30.45 in 10.0 miles ESE 3.5 mph - N/A   Mostly Cloudy
12:53 AM 33.1°F 26.1°F 75% 30.49 in 10.0 miles ENE 4.6 mph - N/A   Overcast
1:35 AM 33.8°F 26.6°F 75% 30.46 in 10.0 miles East 4.6 mph - N/A   Scattered Clouds
1:53 AM 32.0°F 25.0°F 75% 30.50 in 10.0 miles ENE 4.6 mph - N/A   Partly Cloudy
2:53 AM 30.0°F 25.0°F 82% 30.51 in 10.0 miles NE 5.8 mph - N/A   Partly Cloudy
3:53 AM 30.9°F 26.1°F 82% 30.49 in 10.0 miles East 3.5 mph - N/A   Clear
4:53 AM 30.0°F 25.0°F 82% 30.47 in 10.0 miles ESE 6.9 mph - N/A   Clear
5:53 AM 28.9°F 23.0°F 78% 30.46 in 10.0 miles SSE 4.6 mph - N/A   Clear
6:53 AM 28.0°F 21.9°F 78% 30.47 in 10.0 miles NNE 3.5 mph - N/A   Clear
7:53 AM 30.9°F 21.9°F 69% 30.48 in 10.0 miles ENE 5.8 mph - N/A   Partly Cloudy
8:53 AM 32.0°F 26.1°F 79% 30.52 in 10.0 miles NNE 5.8 mph - N/A   Partly Cloudy
9:53 AM 35.1°F 28.0°F 76% 30.51 in 10.0 miles North 3.5 mph - N/A   Partly Cloudy
10:53 AM 37.9°F 28.0°F 68% 30.51 in 10.0 miles North 5.8 mph - N/A   Partly Cloudy
11:53 AM 37.9°F 28.0°F 68% 30.48 in 10.0 miles North 4.6 mph - N/A   Partly Cloudy
12:53 PM 39.9°F 28.0°F 63% 30.46 in 10.0 miles North 5.8 mph - N/A   Partly Cloudy
1:53 PM 41.0°F 28.0°F 60% 30.46 in 10.0 miles North 5.8 mph - N/A   Mostly Cloudy
2:53 PM 41.0°F 30.9°F 67% 30.45 in 10.0 miles North 6.9 mph - N/A   Mostly Cloudy
3:53 PM 39.0°F 30.0°F 70% 30.44 in 10.0 miles North 6.9 mph - N/A   Mostly Cloudy
4:53 PM 37.0°F 30.0°F 76% 30.43 in 10.0 miles North 11.5 mph - N/A   Mostly Cloudy
5:53 PM 37.0°F 30.0°F 76% 30.43 in 10.0 miles North 11.5 mph - N/A   Scattered Clouds
6:53 PM 37.0°F 30.0°F 76% 30.41 in 10.0 miles NNE 11.5 mph - N/A   Partly Cloudy
7:53 PM 34.0°F 28.9°F 82% 30.39 in 10.0 miles North 6.9 mph - N/A   Partly Cloudy
8:53 PM 35.1°F 30.0°F 82% 30.39 in 10.0 miles NNE 5.8 mph - N/A   Clear
9:53 PM 33.1°F 28.9°F 85% 30.40 in 10.0 miles NNE 6.9 mph - N/A   Clear
10:53 PM 33.1°F 28.9°F 85% 30.38 in 10.0 miles NE 5.8 mph - N/A   Partly Cloudy
11:53 PM 30.9°F 28.0°F 89% 30.38 in 10.0 miles NNE 3.5 mph - N/A   Scattered Clouds
Moon Phase
Jan. 01 Jan. 04 Jan. 11 Jan. 18 Jan. 26
Sunrise:07:56 AM (PST) Moon Rise:09:26 PM (PST)
Sunset:04:29 PM (PST) Moon Set:09:52 AM (PST)

Copyright © 2014 The Weather Underground, Inc.